Location: Kaseke
(18.0171°S, 31.0526°E)
Time: 12:29:41
(UTC+00:00)

Cosmos 1092 Rocket - Pass Details

Date: 14 July 2020
Orbit: 955 x 994 km, 83.0° (Epoch: 07 August)

Event Time Altitude Azimuth Distance (km) Brightness Sun altitude
Rises 03:11:10 0° 339° (NNW) 3,663 7.0 -17.9°
Reaches altitude 10° 03:13:50 10° 331° (NNW) 2,715 6.2 -17.3°
Maximum altitude 03:19:35 39° 264° (W) 1,409 4.4 -16.0°
Drops below altitude 10° 03:25:21 10° 196° (SSW) 2,713 6.0 -14.7°
Sets 03:28:02 0° 188° (S) 3,660 6.7 -14.1°
